User: anonymous   Login
Location: Asis
(14.1331°N, 120.9056°E)
Time: 08:06:10
(UTC+00:00)
Language:

Meteor 1-24 Rocket - Orbit

View from above orbital plane
View from above orbital plane
View from above satellite
View from above satellite

Ground track
Ground track

The orbit is defined by the following mean orbital elements,

1 08800U          26072.90801003 +.00000000 +00000-0 +36489-4 0 00001
2 08800  81.2543 351.4012 0094116 146.2258 214.4959 14.10651538    04
Epoch (UTC): 13 March 2026 21:47:32
Eccentricity: 0.0094116
inclination: 81.2543°
perigee height: 789 km
apogee height: 925 km
right ascension of ascending node: 351.4012°
argument of perigee: 146.2258°
revolutions per day: 14.10651538
mean anomaly at epoch: 214.4959°

The dashed part of the orbit path shows where the satellite is in the earth's shadow,  

DLR